$Date,$Time,DM0201B,DM0203B,DM0205B,DM0207B,DM0209B
05/09/99,00:00:01,81,311,-27,1,954
05/09/99,00:05:01,100,301,-27,1,954
05/09/99,00:10:01,75,301,-27,1,954
05/09/99,00:15:01,93,301,-27,1,954
05/09/99,00:20:01,106,301,-27,1,954
05/09/99,00:25:01,120,308,-27,1,954
05/09/99,00:30:01,127,304,-27,1,954
05/09/99,00:35:01,83,314,-27,1,954
05/09/99,00:40:01,92,302,-27,1,954
05/09/99,00:45:01,133,313,-27,1,954
05/09/99,00:50:01,119,309,-27,1,954
05/09/99,00:55:01,109,309,-27,1,954
05/09/99,01:00:01,96,305,-27,1,954
05/09/99,01:05:01,84,305,-27,1,954
05/09/99,01:10:01,109,305,-27,1,954
05/09/99,01:15:01,119,305,-27,1,954
05/09/99,01:20:01,115,305,-27,1,954
05/09/99,01:25:01,146,305,-27,1,954
05/09/99,01:30:01,120,305,-27,1,954
05/09/99,01:35:01,126,305,-27,1,954
05/09/99,01:40:01,117,305,-27,1,954
05/09/99,01:45:01,135,305,-27,1,954
05/09/99,01:50:01,115,305,-27,1,954
05/09/99,01:55:01,133,294,-27,1,954
05/09/99,02:00:01,64,298,-27,1,954
05/09/99,02:05:01,92,299,-27,1,954
05/09/99,02:10:01,131,307,-27,1,954
05/09/99,02:15:01,146,295,-25,1,954
05/09/99,02:20:01,167,295,-25,1,954
05/09/99,02:25:01,180,295,-25,1,954
05/09/99,02:30:01,181,295,-25,1,954
05/09/99,02:35:01,141,274,-25,1,954
05/09/99,02:40:01,101,264,-25,1,954
05/09/99,02:45:01,123,271,-25,1,954
05/09/99,02:50:01,149,271,-25,1,954
05/09/99,02:55:01,130,259,-25,1,954
05/09/99,03:00:01,123,268,-25,1,954
05/09/99,03:05:01,109,255,-25,1,954
05/09/99,03:10:01,115,274,-25,1,954
05/09/99,03:15:01,123,281,-25,1,954
05/09/99,03:20:01,87,259,-25,1,954
05/09/99,03:25:01,68,251,-25,1,954
05/09/99,03:30:01,98,267,-25,1,954
05/09/99,03:35:01,102,275,-25,1,954
05/09/99,03:40:01,154,294,-25,1,954
05/09/99,03:45:01,85,285,-25,1,954
05/09/99,03:50:01,85,285,-25,1,954
05/09/99,03:55:01,72,278,-25,1,954
05/09/99,04:00:01,93,272,-25,1,954
05/09/99,04:05:01,74,301,-25,1,954
05/09/99,04:10:01,66,301,-25,1,954
05/09/99,04:15:01,57,295,-25,1,954
05/09/99,04:20:01,44,267,-25,1,954
05/09/99,04:25:01,52,296,-25,1,954
05/09/99,04:30:01,72,307,-25,1,954
05/09/99,04:35:01,57,314,-25,1,954
05/09/99,04:40:01,27,292,-25,1,954
05/09/99,04:45:01,41,293,-25,1,954
05/09/99,04:50:01,29,305,-25,1,954
05/09/99,04:55:01,40,320,-25,1,954
05/09/99,05:00:01,27,331,-25,1,954
05/09/99,05:05:01,18,331,-25,1,954
05/09/99,05:10:01,23,206,-25,1,956
05/09/99,05:15:01,43,206,-25,1,956
05/09/99,05:20:01,32,195,-25,1,956
05/09/99,05:25:01,57,175,-25,1,956
05/09/99,05:30:01,69,195,-25,1,956
05/09/99,05:35:01,144,184,-25,1,956
05/09/99,05:40:01,181,175,-25,1,956
05/09/99,05:45:01,249,154,-25,1,956
05/09/99,05:50:01,408,178,-25,1,956
05/09/99,05:55:01,411,166,-25,1,956
05/09/99,06:00:01,308,166,-25,1,956
05/09/99,06:05:01,425,167,-25,1,956
05/09/99,06:10:01,354,171,-25,1,956
05/09/99,06:15:01,390,166,-25,1,956
05/09/99,06:20:01,238,170,-25,1,956
05/09/99,06:25:01,298,175,-25,1,956
05/09/99,06:30:01,210,172,-25,1,956
05/09/99,06:35:01,319,167,-25,1,956
05/09/99,06:40:01,393,177,-25,1,956
05/09/99,06:45:01,329,177,-25,1,956
05/09/99,06:50:01,247,177,-25,1,956
05/09/99,06:55:01,202,191,-25,1,956
05/09/99,07:00:01,221,176,-25,1,956
05/09/99,07:05:01,231,176,-25,1,956
05/09/99,07:10:01,192,161,-25,1,956
05/09/99,07:15:01,144,160,-25,1,956
05/09/99,07:20:01,171,160,-25,1,956
05/09/99,07:25:01,168,173,-25,1,956
05/09/99,07:30:01,104,171,-25,1,956
05/09/99,07:35:01,70,129,-25,1,956
05/09/99,07:40:01,143,147,-25,1,956
05/09/99,07:45:01,87,112,-25,1,956
05/09/99,07:50:01,76,114,-25,1,956
05/09/99,07:55:01,73,59,-25,1,956
05/09/99,08:00:01,33,48,-25,1,956
05/09/99,08:05:01,51,27,-25,1,956
05/09/99,08:10:01,18,51,-25,1,956
05/09/99,08:15:01,3,201,-25,1,956
05/09/99,08:20:01,160,210,-25,1,956
05/09/99,08:25:01,142,205,-25,1,956
05/09/99,08:30:01,69,206,-25,1,956
05/09/99,08:35:01,122,217,-25,1,956
05/09/99,08:40:01,121,227,-25,1,956
05/09/99,08:45:01,151,186,-25,1,956
05/09/99,08:50:01,134,196,-25,1,956
05/09/99,08:55:01,149,181,-25,1,956
05/09/99,09:00:01,169,207,-25,1,956
05/09/99,09:05:01,142,178,-25,1,956
05/09/99,09:10:01,89,178,-25,1,956
05/09/99,09:15:01,73,177,-25,1,956
05/09/99,09:20:01,62,175,-25,1,956
05/09/99,09:25:01,137,186,-25,1,956
05/09/99,09:30:01,112,174,-25,1,956
05/09/99,09:35:01,51,165,-25,1,956
05/09/99,09:40:01,126,192,-25,1,956
05/09/99,09:45:01,79,186,-25,1,956
05/09/99,09:50:01,43,314,-25,1,956
05/09/99,09:55:01,90,314,-25,1,956
05/09/99,10:00:01,13,349,-25,1,956
05/09/99,10:05:01,15,355,-25,1,956
05/09/99,10:10:01,50,303,-25,1,956
05/09/99,10:15:01,40,303,-25,1,956
05/09/99,10:20:01,37,316,-25,1,956
05/09/99,10:25:01,73,316,-25,1,956
05/09/99,10:30:01,87,316,-25,1,956
05/09/99,10:35:01,67,326,-25,1,956
05/09/99,10:40:01,69,336,-25,1,956
05/09/99,10:45:01,75,348,-25,1,956
05/09/99,10:50:01,105,350,-25,1,956
05/09/99,10:55:01,68,338,-27,1,956
05/09/99,11:00:01,86,338,-27,1,956
05/09/99,11:05:01,94,328,-27,1,956
05/09/99,11:10:01,91,328,-27,1,956
05/09/99,11:15:01,65,339,-27,1,956
05/09/99,11:20:01,106,339,-27,1,956
05/09/99,11:25:01,106,339,-27,1,956
05/09/99,11:30:01,95,326,-27,1,956
05/09/99,11:35:01,29,295,-25,1,956
05/09/99,11:40:01,54,327,-25,1,956
05/09/99,11:45:01,10,346,-25,1,956
05/09/99,11:50:01,35,335,-25,1,956
05/09/99,11:55:01,22,59,-25,1,956
05/09/99,12:00:01,1,69,-25,1,956
05/09/99,12:05:01,1,69,-25,1,956
05/09/99,12:10:01,11,358,-25,1,956
05/09/99,12:15:01,57,151,-25,1,956
05/09/99,12:20:01,58,120,-25,1,956
05/09/99,12:25:01,23,315,-25,1,956
05/09/99,12:30:01,29,207,-25,1,956
05/09/99,12:35:01,41,183,-25,1,958
05/09/99,12:40:01,69,173,-25,1,958
05/09/99,12:45:01,55,173,-25,1,958
05/09/99,12:50:01,148,197,-25,1,958
05/09/99,12:55:01,145,174,-25,1,958
05/09/99,13:00:01,143,174,-25,1,958
05/09/99,13:05:01,138,174,-25,1,958
05/09/99,13:10:01,166,163,-25,1,958
05/09/99,13:15:01,98,187,-25,1,958
05/09/99,13:20:01,178,164,-25,1,958
05/09/99,13:25:01,152,163,-25,1,958
05/09/99,13:30:01,183,163,-25,1,958
05/09/99,13:35:01,229,173,-25,1,958
05/09/99,13:40:01,227,175,-25,1,958
05/09/99,13:45:01,153,180,-25,1,958
05/09/99,13:50:01,171,168,-25,1,958
05/09/99,13:55:01,166,179,-25,1,958
05/09/99,14:00:01,170,177,-25,1,958
05/09/99,14:05:01,203,174,-25,1,958
05/09/99,14:10:01,197,179,-25,1,958
05/09/99,14:15:01,182,179,-25,1,958
05/09/99,14:20:01,184,169,-25,1,958
05/09/99,14:25:01,199,169,-25,1,958
05/09/99,14:30:01,154,179,-25,1,958
05/09/99,14:35:01,142,193,-25,1,958
05/09/99,14:40:01,143,157,-25,1,958
05/09/99,14:45:01,85,156,-25,1,958
05/09/99,14:50:01,95,157,-25,1,958
05/09/99,14:55:01,131,170,-25,1,958
05/09/99,15:00:01,68,181,-25,1,958
05/09/99,15:05:01,100,198,-25,1,958
05/09/99,15:10:01,75,183,-25,1,958
05/09/99,15:15:01,93,206,-25,1,958
05/09/99,15:20:01,47,227,-27,1,958
05/09/99,15:25:01,66,176,-27,1,958
05/09/99,15:30:01,138,162,-27,1,958
05/09/99,15:35:01,112,154,-27,1,958
05/09/99,15:40:01,128,156,-27,1,958
05/09/99,15:45:01,18,203,-25,1,958
05/09/99,15:50:01,100,161,-27,1,958
05/09/99,15:55:01,68,140,-27,1,958
05/09/99,16:00:01,38,315,-27,1,958
05/09/99,16:05:01,11,29,-27,1,958
05/09/99,16:10:01,50,175,-27,1,958
05/09/99,16:15:01,36,166,-27,1,958
05/09/99,16:20:01,84,179,-27,1,958
05/09/99,16:25:01,58,355,-29,1,958
05/09/99,16:30:01,57,188,-29,1,958
05/09/99,16:35:01,103,176,-29,1,958
05/09/99,16:40:01,55,153,-29,1,958
05/09/99,16:45:01,85,168,-27,1,958
05/09/99,16:50:01,75,159,-27,1,958
05/09/99,16:55:01,96,152,-27,1,958
05/09/99,17:00:01,32,153,-27,1,958
05/09/99,17:05:01,121,164,-27,1,958
05/09/99,17:10:01,131,164,-27,1,958
05/09/99,17:15:01,123,174,-27,1,958
05/09/99,17:20:01,130,173,-27,1,958
05/09/99,17:25:01,132,178,-27,1,958
05/09/99,17:30:01,158,172,-27,1,958
05/09/99,17:35:01,128,170,-27,1,958
05/09/99,17:40:01,154,170,-27,1,958
05/09/99,17:45:01,144,170,-27,1,958
05/09/99,17:50:01,137,160,-27,1,958
05/09/99,17:55:01,147,160,-27,1,958
05/09/99,18:00:01,146,160,-27,1,958
05/09/99,18:05:01,112,160,-25,1,958
05/09/99,18:10:01,80,155,-25,1,958
05/09/99,18:15:01,147,168,-25,1,958
05/09/99,18:20:01,105,156,-25,1,958
05/09/99,18:25:01,129,166,-25,1,960
05/09/99,18:30:01,122,166,-25,1,960
05/09/99,18:35:01,139,166,-25,1,960
05/09/99,18:40:01,86,156,-25,1,960
05/09/99,18:45:01,110,171,-25,1,960
05/09/99,18:50:01,108,161,-25,1,960
05/09/99,18:55:01,3,112,-25,1,960
05/09/99,19:00:01,3,155,-25,1,960
05/09/99,19:05:01,3,164,-25,1,960
05/09/99,19:10:01,11,113,-25,1,960
05/09/99,19:15:01,22,37,-25,1,960
05/09/99,19:20:01,44,67,-25,1,960
05/09/99,19:25:01,20,138,-25,1,960
05/09/99,19:30:01,37,105,-25,1,960
05/09/99,19:35:01,35,137,-25,1,960
05/09/99,19:40:01,26,104,-25,1,960
05/09/99,19:45:01,15,143,-25,1,960
05/09/99,19:50:01,21,158,-25,1,960
05/09/99,19:55:01,3,66,-25,1,960
05/09/99,20:00:01,4,180,-25,1,960
05/09/99,20:05:01,37,159,-27,1,960
05/09/99,20:10:01,1,159,-27,1,960
05/09/99,20:15:01,23,70,-27,1,960
05/09/99,20:20:01,48,336,-27,1,960
05/09/99,20:25:01,1,2,-27,1,960
05/09/99,20:30:01,48,156,-29,1,960
05/09/99,20:35:01,104,162,-29,1,960
05/09/99,20:40:01,5,142,-29,1,960
05/09/99,20:45:01,34,175,-29,1,960
05/09/99,20:50:01,50,240,-29,1,960
05/09/99,20:55:01,98,209,-29,1,960
05/09/99,21:00:01,114,209,-27,1,960
05/09/99,21:05:01,75,199,-27,1,960
05/09/99,21:10:01,98,199,-27,1,960
05/09/99,21:15:01,84,199,-27,1,960
05/09/99,21:20:01,69,188,-27,1,960
05/09/99,21:25:01,27,188,-27,1,960
05/09/99,21:30:01,72,195,-27,1,960
05/09/99,21:35:01,44,205,-27,1,960
05/09/99,21:40:01,14,185,-27,1,960
05/09/99,21:45:01,34,181,-27,1,960
05/09/99,21:50:01,2,193,-27,1,960
05/09/99,21:55:01,4,149,-27,1,960
05/09/99,22:00:01,61,164,-27,1,960
05/09/99,22:05:01,17,312,-25,1,960
05/09/99,22:10:01,7,346,-25,1,960
05/09/99,22:15:01,18,346,-25,1,960
05/09/99,22:20:01,5,346,-25,1,960
05/09/99,22:25:01,7,350,-25,1,960
05/09/99,22:30:01,7,231,-25,1,960
05/09/99,22:35:01,78,159,-25,1,960
05/09/99,22:40:01,24,285,-25,1,960
05/09/99,22:45:01,49,307,-25,1,960
05/09/99,22:50:01,35,254,-25,1,960
05/09/99,22:55:01,54,299,-25,1,960
05/09/99,23:00:01,24,287,-25,1,960
05/09/99,23:05:01,50,299,-25,1,960
05/09/99,23:10:01,40,298,-25,1,960
05/09/99,23:15:01,40,312,-25,1,960
05/09/99,23:20:01,40,312,-25,1,960
05/09/99,23:25:01,40,322,-25,1,960
05/09/99,23:30:01,24,322,-25,1,960
05/09/99,23:35:01,36,322,-25,1,960
05/09/99,23:40:01,36,322,-25,1,960
05/09/99,23:45:01,25,334,-25,1,960
05/09/99,23:50:01,45,334,-25,1,960
05/09/99,23:55:01,51,323,-25,1,960
05/10/99,00:00:01,52,323,-25,1,960
